ARIANE 2 DEB

基本信息
目录编号:
27035
目录名称:
ARIANE 2 DEB
国际标识:
1989-006Q
轨道中心:
EARTH
物体状态:
已陨落(2025-05-09)
发射日期:
1989-01-27 UTC
轨道信息
数据来源: 国际轨道数据
星历时间: 2023-11-19T18:29:08+0800
半长轴: 23967.137km
偏心率: 0.7107712
轨道倾角: 8.237°
近地点辐角: 140.657°
升交点赤经: 51.269°
平近点角: 302.220°
近地点: 553.851km
远地点: 34624.153km
周期: 615.437分钟
每日圈数: 2.339799
详细信息
发射场:
FRGUI
轨道高度:
LEO
数据来源:
AOE Integration Group
参考系:
TEME
时间系统:
UTC
历元类型:
SGP4
2D轨道图
3D轨道图
轨道高度分析图
轨道倾角分析图
轨道综合分析图
查看轨道综合分析图